This demonstration page uses our WeatherBlox Daily Observations layout. Learn more.

Left ArrowRight Arrow

39.12711, -84.51439

Hourly Observations for March 18, 2021

Temp ( °F °C ) Dew Point ( °F °C ) Humidity (%) Winds ( mph kmh ) Pressure ( in mb ) Visibility ( mi km ) Precip ( " mm )
12:05 am 00:05 Cloudy with Light Rain 55 12.8 54 12.2 96 96 N 3 6 29.76 1008 5 8 0.00 0.00
12:34 am 00:34 Cloudy 56 13.3 54 12.2 93 93 N 5 7 29.75 1007 9 14 0.02 0.51
12:53 am 00:53 Cloudy with Light Rain 55 12.8 54 12.2 96 96 NNW 5 7 29.75 1007 6 10 0.02 0.51
1:53 am 01:53 Cloudy with Light Rain 54 12.2 53 11.7 97 97 NE 6 9 29.71 1006 3 5 0.00 0.00
2:53 am 02:53 Cloudy with Light Rain 55 12.8 54 12.2 96 96 NNE 7 11 29.69 1005 4 6 0.06 1.52
3:53 am 03:53 Cloudy 55 12.8 53 11.7 93 93 NE 7 11 29.64 1004 10 16 0.00 0.00
4:36 am 04:36 Mostly Cloudy 55 12.8 53 11.7 93 93 N 6 9 29.62 1003 10 16 0.00 0.00
4:53 am 04:53 Cloudy 55 12.8 53 11.7 93 93 NNE 5 7 29.62 1003 10 16 0.00 0.00
5:03 am 05:03 Cloudy 55 12.8 53 11.7 93 93 NE 6 9 29.62 1003 10 16 0.00 0.00
5:53 am 05:53 Cloudy 55 12.8 53 11.7 93 93 NNE 3 6 29.61 1003 10 16 0.00 0.00
6:09 am 06:09 Cloudy 55 12.8 53 11.7 93 93 NNE 3 6 29.61 1003 10 16 0.00 0.00
6:26 am 06:26 Cloudy with Light Rain 55 12.8 53 11.7 93 93 NNE 5 7 29.60 1002 6 10 0.00 0.00
6:53 am 06:53 Cloudy 55 12.8 53 11.7 93 93 NE 3 6 29.59 1002 8 13 0.00 0.00
7:53 am 07:53 Cloudy with Rain 55 12.8 53 11.7 93 93 NE 3 6 29.58 1002 3 5 0.01 0.25
8:03 am 08:03 Cloudy with Rain 55 12.8 53 11.7 93 93 NNE 5 7 29.58 1002 3 5 0.00 0.00
8:15 am 08:15 Cloudy with Rain 55 12.8 54 12.2 96 96 NE 5 7 29.58 1002 2 2 0.01 0.25
8:22 am 08:22 Cloudy with Rain 55 12.8 53 11.7 93 93 NNE 5 7 29.58 1002 2 2 0.03 0.76
8:53 am 08:53 Cloudy with Light Rain 55 12.8 54 12.2 96 96 NNE 7 11 29.56 1001 2 2 0.09 2.29
8:55 am 08:55 Cloudy with Light Rain 55 12.8 54 12.2 96 96 NNE 7 11 29.57 1001 3 5 0.00 0.00
9:05 am 09:05 Cloudy with Rain 55 12.8 54 12.2 96 96 NNE 7 11 29.57 1001 2 2 0.03 0.76
9:13 am 09:13 Cloudy with Light Rain 55 12.8 54 12.2 96 96 NNE 6 9 29.57 1001 3 5 0.04 1.02
9:37 am 09:37 Cloudy with Rain 56 13.3 54 12.2 93 93 NE 5 7 29.57 1001 3 4 0.04 1.02
9:53 am 09:53 Cloudy with Mist and Fog 56 13.3 54 12.2 93 93 NNE 6 9 29.57 1001 6 10 0.04 1.02
10:53 am 10:53 Cloudy with Rain 55 12.8 53 11.7 93 93 N 9 15 29.58 1002 5 8 0.02 0.51
11:53 am 11:53 Cloudy with Light Rain 55 12.8 53 11.7 93 93 NE 13 20 29.60 1003 4 6 0.02 0.51
12:53 pm 12:53 Cloudy with Rain 52 11.1 49 9.4 89 89 NNE 14 22 29.64 1004 6 10 0.03 0.76
1:53 pm 13:53 Cloudy 52 11.1 48 8.9 86 86 NNE 9 15 29.65 1004 10 16 0.04 1.02
2:53 pm 14:53 Cloudy 51 10.6 46 7.8 83 83 NNE 16 26 29.65 1004 10 16 0.00 0.00
3:53 pm 15:53 Cloudy 50 10 45 7.2 83 83 NNE 13 20 29.66 1005 10 16 0.00 0.00
4:53 pm 16:53 Cloudy with Light Rain 48 8.9 43 6.1 83 83 NNE 15 24 29.70 1006 9 14 0.00 0.00
5:53 pm 17:53 Cloudy 47 8.3 42 5.6 83 83 NNE 18 30 29.73 1007 10 16 0.00 0.00
6:53 pm 18:53 Cloudy 45 7.2 39 3.9 80 80 NNE 16 26 29.78 1009 10 16 0.00 0.00
7:53 pm 19:53 Cloudy 44 6.7 38 3.3 79 79 NNE 15 24 29.81 1010 10 16 0.00 0.00
8:53 pm 20:53 Cloudy with Light Rain 43 6.1 37 2.8 80 80 NNE 12 19 29.86 1011 10 16 0.00 0.00
9:53 pm 21:53 Cloudy with Light Rain 42 5.6 38 3.3 85 85 NNE 21 33 29.90 1013 7 11 0.02 0.51
10:53 pm 22:53 Cloudy 42 5.6 35 1.7 76 76 NNE 18 30 29.94 1014 10 16 0.00 0.00
11:53 pm 23:53 Cloudy 43 6.1 33 0.6 68 68 NNE 20 31 29.98 1015 10 16 0.00 0.00

Powered by AerisWeather